Regional Weather Roundup
Issued by NWS Green Bay, WI

Home | Current Version | Previous Version | Graphics & Text | Print | Product List | Glossary Off
Versions: 1 2 3 4 5 6 7 8 9 10 11 12 13 14 15 16 17 18 19 20 21 22 23 24 25 26 27 28 29 30 31 32 33 34 35 36 37 38 39 40 41 42 43 44 45 46 47 48 49 50

000
ASUS43 KGRB 250459
RWRGRB

NORTH-CENTRAL AND NORTHEAST WISCONSIN REGIONAL WEATHER ROUNDUP
NATIONAL WEATHER SERVICE GREEN BAY WI
1200 AM CDT FRI JUL 25 2014

WIZ005-009-010>012-018-019-250600-
NORTH CENTRAL WISCONSIN

CITY           SKY/WX    TMP DP  RH WIND       PRES   REMARKS
IRONWOOD       MOCLDY    66  55  68 SW6       29.93F
MANITOWISH WTR NOT AVBL
ARBOR VITAE    NOT AVBL
EAGLE RIVER    NOT AVBL
LAND O LAKES   NOT AVBL
RHINELANDER    CLOUDY    61  57  87 CALM      30.01F
PHILLIPS       PTCLDY    64  56  75 S7        29.97F
ANTIGO         NOT AVBL
TOMAHAWK       MOCLDY    58  56  93 CALM      30.00F
MERRILL        NOT AVBL
$$

WIZ013-073-250600-
NORTHEAST WISCONSIN

CITY           SKY/WX    TMP DP  RH WIND       PRES   REMARKS
IRON MOUNTAIN  CLOUDY    62  52  69 S7        29.99F
MARINETTE      MOCLDY    63  48  59 SW9       30.00F
$$

WIZ017-030-035>037-045-250600-
CENTRAL WISCONSIN

CITY           SKY/WX    TMP DP  RH WIND       PRES   REMARKS
MEDFORD        NOT AVBL
WAUSAU         PTCLDY    63  57  81 E3        29.99F
MOSINEE        PTCLDY    61  59  94 CALM      30.02F
MARSHFIELD     PTCLDY    63  57  81 S3        30.01F
WISC RAPIDS    CLEAR     63  55  75 S3        30.02S
STEVENS POINT  NOT AVBL
WAUPACA        MOCLDY    66  57  71 SE6       30.03R
SHAWANO        MOCLDY    63  51  64 S3        30.02F
CLINTONVILLE   MOCLDY    64  54  68 S6        30.02S
$$

WIZ038-039-048-051-250600-
FOX VALLEY

CITY           SKY/WX    TMP DP  RH WIND       PRES   REMARKS
NWS GREEN BAY  CLOUDY    63  46  54 S6        30.03S
APPLETON       NOT AVBL
OSHKOSH        MOCLDY    62  48  60 S9        30.03R
FOND DU LAC    MOCLDY    59  46  62 S5        30.04R
$$

WIZ022-050-052-250600-
EAST CENTRAL WISCONSIN

CITY           SKY/WX    TMP DP  RH WIND       PRES   REMARKS
STURGEON BAY   CLOUDY    61  43  51 S10       30.02F
MANITOWOC      NOT AVBL
SHEBOYGAN      PTCLDY    56  47  71 CALM      30.04S
$$

LMZ563-521-522-541>543-250600-
LAKESHORE

STATION/POSITION TIME  TEMP    WIND        PRES    VSBY  WAVE
                       AIR SEA DIR/SP/G                  HT/PER
                 (UTC) (F)     (DEG/KT/KT) (MB)    (MI)  (FT/S)
SHEBOYGAN LKSHOR 0400   63     210/  8/  9 1017.5R
KEWAUNEE LKSHORE 0400   63     220/  7/ 12 1017.7R
NORTHPORT PIER   0400   63     190/  4/  9 1015.9F
N MID LAKE BUOY  0400   59 56  210/  6/  8 1016.1S         1/ 3
CHAMBERS ISLAND  0400   64     180/  7/ 14 1016.3S
MENOMINEE LKSHOR 0400   65     200/  7/ 10 1017.0R
$$


USA.gov is the U.S. government's official web portal to all federal, state and local government web resources and services.